sat.trackr.live / text

‹ back to catalog

STARLINK-2031

NORAD 47648 · 2021-012AE

PAYLOAD ACTIVE UNKNOWN

§ Identity

Operator
Country
US
Launch date
2021-02-16
Launch site
AFETR
Launch vehicle
Mass (kg)
RCS (m²)

Purposes: comms

External: N2YO · Heavens-Above · Gunter

§ Orbital elements

Epoch: 2026-09-20T03:59:20.335776Z

Period
94.01 min
Inclination
53.1607°
Eccentricity
0.0001240
Mean motion
15.31707518 rev/d
Perigee alt
469.9 km
Apogee alt
471.6 km
Semi-major
6,848.9 km
B*
1.9182e-5
RAAN
224.4739°
Arg perigee
84.4413°
Mean anomaly
275.6730°
Rev number
31,010

§ Raw data

STARLINK-20311 47648U 21012AE  26263.16620759  .00000230  00000+0  19182-4 0  99992 47648  53.1607 224.4739 0001240  84.4413 275.6730 15.31707518310108

JSON: /api/v1/satellites/47648 · /tle

For live sub-satellite position, see the globe view (requires WebGL).

§ Visibility from observer

Set your observer location to see the next 7 days of passes ≥ 10°. The values pass through the URL so the page stays shareable.

No JS? Fill the form by hand. The geolocation button needs JavaScript.